User: anonymous   Login
Location: Bethera
(33.2010°N, 79.7880°W)
Time: 23:39:30
(UTC-04:00)
Language:

Cosmos 1833 Rocket - Orbit

View from above orbital plane
View from above orbital plane
View from above satellite
View from above satellite

Ground track
Ground track

The orbit data is extracted from the following two-line orbital elements,

1 17590U 87027B   17177.30986662 -.00000175 +00000-0 -63411-4 0  9993
2 17590 071.0028 130.7655 0007319 283.7346 076.2962 14.16745319565180
Epoch (UTC): 26 June 2017 07:26:12
Eccentricity: 0.0007319
inclination: 71.0028°
perigee height: 831 km
apogee height: 841 km
right ascension of ascending node: 130.7655°
argument of perigee: 283.7346°
revolutions per day: 14.16745319
mean anomaly at epoch: 76.2962°
orbit number at epoch: 56518

The dashed part of the orbit path shows where the satellite is in the earth's shadow,  

DLR